Regional Weather Roundup
Issued by NWS

Home | Current Version | Previous Version | Text Only | Print | Product List | Glossary On
Versions: 1 2 3 4 5 6 7 8 9 10 11 12 13 14 15 16 17 18 19 20 21 22 23 24 25 26 27
000
ASUS45 KBOU 221507
RWRCO

WEATHER ROUNDUP FOR COLORADO
NATIONAL WEATHER SERVICE DENVER/BOULDER CO
900 AM MDT SAT JUL 22 2017

NOTE: "FAIR" INDICATES FEW OR NO CLOUDS BELOW 12000 FEET WITH NO
SIGNIFICANT WEATHER AND/OR OBSTRUCTIONS TO VISIBILITY.

COZ001>005-013-030-031-221600-
...NORTHWEST COLORADO...

CITY           SKY/WX    TMP DP  RH WIND       PRES   REMARKS
CRAIG          FAIR      61  52  72 NE3       30.33R
HAYDEN         FAIR      61  48  63 E10       30.35R
MEEKER         FAIR      64  51  62 CALM      30.32F
RABBIT EARS PA FAIR      57  43  58 N5        30.60R
STEAMBOAT SPGS FAIR      57  51  80 NW3       30.37R
WALDEN         FAIR      57  48  72 CALM      30.46S
$$

COZ006>008-011-221600-
...WEST CENTRAL VALLEYS...

CITY           SKY/WX    TMP DP  RH WIND       PRES   REMARKS
GRAND JUNCTION FAIR      70  62  76 S6        30.22R
MONTROSE       FAIR      66  57  72 SE7       30.29S
EAGLE          PTSUNNY   61  55  82 MISG      30.40R
RIFLE          FAIR      66  57  72 CALM      30.28R
DELTA          FAIR      72  58  62 CALM      30.25S
NUCLA          NOT AVBL
$$

COZ017>023-064>068-221600-
...SOUTHWEST COLORADO...

CITY           SKY/WX    TMP DP  RH WIND       PRES   REMARKS
DURANGO        FAIR      63  55  75 E3        30.29R
CORTEZ         FAIR      67  56  67 CALM      30.23R
PAGOSA SPRINGS FAIR      68  48  49 CALM      30.36S
TELLURIDE      PTSUNNY   58  51  76 CALM      30.48R
WOLF CREEK PAS FAIR      52  41  66 CALM      30.71R
$$

COZ009-010-012-014-032>034-037-058>063-221600-
...CENTRAL COLORADO...

CITY           SKY/WX    TMP DP  RH WIND       PRES   REMARKS
ASPEN          FAIR      60  51  72 CALM      30.42R
BUENA VISTA    CLOUDY    62  47  58 W10G17    30.41R
COPPER MTN     FAIR      54  37  54 N3        30.71R
BERTHOUD PASS  FAIR      46  32  57 N5        30.74R
COTTONWOOD PAS CLOUDY    61  45  55 CALM      30.54R
GUNNISON       FAIR      61  52  72 NE5       30.40R
KREMMLING      FAIR      61  52  72 CALM      30.44R
LEADVILLE      FAIR      56  44  64 VRB5      30.53R
MONARCH PASS   CLOUDY    50  41  71 E3        30.78R
SALIDA         CLOUDY    64  49  58 CALM      30.45R
SUNLIGHT       FAIR      52  45  76 NE6       30.64R
WILKERSON PASS CLOUDY    54  36  50 E7        30.67R
$$

COZ069>075-221600-
...SAN LUIS VALLEY/SANGRE DE CRISTO MOUNTAINS...

CITY           SKY/WX    TMP DP  RH WIND       PRES   REMARKS
ALAMOSA        FAIR      64  49  57 CALM      30.36R
DEL NORTE      FAIR      63  48  58 W7        30.40R
LA VETA PASS   NOT AVBL
SAGUACHE         N/A    N/A N/A N/A MISG        N/A
$$

COZ035-036-038>040-221600-
...NORTHERN COLORADO FRONT RANGE...

CITY           SKY/WX    TMP DP  RH WIND       PRES   REMARKS
DENVER INTL AP PTSUNNY   68  59  73 S9        30.22R
DMNS CITY PARK   N/A     75  55  50 SE6       30.23R
AURORA         PTSUNNY   67  58  73 SW5       30.25R
FRONT RANGE AP FAIR      72  59  64 SW5       30.24R
ERIE MUNI ARPT FAIR      71  58  63 S6        30.21R
BOULDER MUN AP FAIR      72  54  53 SE3       30.21R
CENTENNIAL     PTSUNNY   68  55  63 S5        30.26R
BROOMFIELD     FAIR      70  55  60 CALM      30.25R
FORT COLLINS   FAIR      72  56  57 S10       30.20R
LONGMONT       FAIR      75  57  54 S3        30.21R
$$

COZ041-046-047-076>085-087-088-221600-
...PIKES PEAK/PALMER DIVIDE AND SOUTHERN FOOTHILLS...

CITY           SKY/WX    TMP DP  RH WIND       PRES   REMARKS
COLO. SPRINGS  PTSUNNY   69  57  65 NW5       30.29R
A. F. ACADEMY  PTSUNNY   67  55  64 N6        30.29R
SCHRIEVER AFB  PTSUNNY   65  55  68 E3        30.28R
CHEYENNE MTN   CLOUDY    65  51  62 N9        30.27R
ELLICOTT       FAIR     N/A N/A N/A CALM      30.25R
FALCON           N/A     67  53  59 NW5       30.33R
FORT CARSON    FAIR      69  57  65 N7        30.25R
LIMON          FAIR      67  60  78 W8        30.22R
MONUMENT HILL  FAIR      64  54  68 W3        30.35R
CANON CITY     MOSUNNY   73  57  56 W10       30.21R
WALSENBURG     FAIR      79  50  36 SE5       30.24S
TRINIDAD       FAIR      75  51  43 W9        30.23R
$$

COZ042>045-048>051-090-091-221600-
...NORTHEAST COLORADO...

CITY           SKY/WX    TMP DP  RH WIND       PRES   REMARKS
GREELEY ARPT   FAIR      73  61  65 S7        30.19R
AKRON          NOT AVBL
BURLINGTON     NOT AVBL
WRAY           NOT AVBL
YUMA           CLOUDY    68  52  56 NW6       30.15R
STERLING       FAIR      68  64  88 SE6       30.14R
HOLYOKE        FAIR      79  61  53 W5        30.11R
FORT MORGAN    FAIR      67  62  81 W9        30.17S
$$

COZ086-089-092>099-221600-
...SOUTHEAST COLORADO...

CITY           SKY/WX    TMP DP  RH WIND       PRES   REMARKS
PUEBLO         FAIR      74  56  53 NE6       30.17R
LA JUNTA       NOT AVBL
LAMAR          FAIR      81  58  45 NW12      30.08R
SPRINGFIELD      N/A     81  54  39 N8        30.11R
$$




USA.gov is the U.S. government's official web portal to all federal, state and local government web resources and services.